"Pseudo-MPEC" for P10Ua4V

Created 2019 Nov 13 10:07:12 UT using Find_Orb

Click here for an explanation of pseudo-MPECs

 
 Astrometry: 
     P10Ua4V  C2019 11 05*GM.$6LXCcR\OcW`AIC0d(`AstrometryC[l/=FI]PJe^OUe-RN9F51
     P10Ua4V  C2019 11 055WVlqR;bZwHWX;gOajgk;,PjaoQ:Credacted;E)!UOLclick-kAF51
     P10Ua4V  C2019 11 05or7Phereg$(oGsdS#.nforr9.pexplanation^7K:gw!2?ql7C*hF51

Station data:
(F51) Pan-STARRS 1, Haleakala  (N20.707235 W156.255910)  US/Hawaii.
   Observers N. Primak, A. Schultz, S. Watters, J. Thiel, T. Goggia. Measurer
   PS1 Science Consortium. 1.8-m Ritchey-Chrétien + CCD.

Orbital elements:  P10Ua4V
   Perihelion 2020 Apr 20.496518 +/- 148 TT = 11:54:59 (JD 2458959.996518)
Epoch 2019 Nov  6.0 TT = JDT 2458793.5   Earth MOID: 0.0042   AutoNEOCP
M 206.10625877 +/- 110              (J2000 ecliptic)
n   0.92430606 +/- 0.435            Peri.  185.15409 +/- 55
a   1.04373964 +/- 0.327            Node    13.45715 +/- 45
e   0.0365318 +/- 0.241             Incl.    0.96959 +/- 57
P   1.07/389.47d           H 27.3   G  0.15   U 12.2  SR
q 1.00560992 +/- 0.627    Q 1.08186936 +/- 18.1
From 3 observations 2019 Nov. 5 (35.3 min); mean residual 0".15
Residuals in arcseconds: 
191105 F51  .14-  .04-    191105 F51  .28+  .09+    191105 F51  .14-  .04-    

Ephemerides (geocentric):
Date (UTC) HH   RA              Dec         delta   r     elong  mag " sig PA
---- -- -- --  -------------   -----------  ------ ------ -----  --- ---- ---
2019 11 13 10  02 10 09.889   +20 27 08.09  .08923 1.0761 165.2 23.0  30d 164
2019 11 13 11  02 10 03.226   +20 26 51.43  .08925 1.0761 165.1 23.0  30d 164
2019 11 13 12  02 09 56.572   +20 26 34.75  .08927 1.0761 165.0 23.0  30d 164
2019 11 13 13  02 09 49.926   +20 26 18.05  .08929 1.0761 165.0 23.0  30d 164
2019 11 13 14  02 09 43.287   +20 26 01.33  .08931 1.0761 164.9 23.0  30d 164
2019 11 13 15  02 09 36.657   +20 25 44.60  .08933 1.0761 164.9 23.0  31d 164
2019 11 13 16  02 09 30.035   +20 25 27.85  .08935 1.0760 164.8 23.0  31d 164
2019 11 13 17  02 09 23.421   +20 25 11.08  .08937 1.0760 164.7 23.0  31d 164
2019 11 13 18  02 09 16.815   +20 24 54.30  .08939 1.0760 164.7 23.0  31d 164
2019 11 13 19  02 09 10.218   +20 24 37.51  .08941 1.0760 164.6 23.0  31d 164
2019 11 13 20  02 09 03.629   +20 24 20.69  .08943 1.0760 164.5 23.0  31d 164
2019 11 13 21  02 08 57.048   +20 24 03.86  .08946 1.0760 164.5 23.0  31d 164
2019 11 13 22  02 08 50.475   +20 23 47.02  .08948 1.0760 164.4 23.0  31d 164
2019 11 13 23  02 08 43.911   +20 23 30.16  .08950 1.0760 164.4 23.0  31d 164
2019 11 14 00  02 08 37.355   +20 23 13.28  .08952 1.0759 164.3 23.0  31d 164
2019 11 14 01  02 08 30.807   +20 22 56.39  .08954 1.0759 164.2 23.0  31d 164
2019 11 14 02  02 08 24.268   +20 22 39.49  .08956 1.0759 164.2 23.0  31d 164
2019 11 14 03  02 08 17.737   +20 22 22.57  .08958 1.0759 164.1 23.0  31d 164
2019 11 14 04  02 08 11.215   +20 22 05.63  .08960 1.0759 164.0 23.0  31d 164
2019 11 14 05  02 08 04.701   +20 21 48.68  .08962 1.0759 164.0 23.0  31d 164
2019 11 14 06  02 07 58.195   +20 21 31.72  .08965 1.0759 163.9 23.0  31d 164
2019 11 14 07  02 07 51.698   +20 21 14.74  .08967 1.0758 163.9 23.0  31d 164
2019 11 14 08  02 07 45.210   +20 20 57.75  .08969 1.0758 163.8 23.1  31d 164
2019 11 14 09  02 07 38.730   +20 20 40.75  .08971 1.0758 163.7 23.1  31d 164
2019 11 14 10  02 07 32.259   +20 20 23.73  .08973 1.0758 163.7 23.1  31d 164
2019 11 14 11  02 07 25.796   +20 20 06.69  .08975 1.0758 163.6 23.1  31d 164
2019 11 14 12  02 07 19.342   +20 19 49.65  .08978 1.0758 163.5 23.1  31d 164
2019 11 14 13  02 07 12.897   +20 19 32.59  .08980 1.0758 163.5 23.1  31d 164
2019 11 14 14  02 07 06.460   +20 19 15.52  .08982 1.0757 163.4 23.1  31d 164
2019 11 14 15  02 07 00.032   +20 18 58.43  .08984 1.0757 163.4 23.1  31d 164
2019 11 14 16  02 06 53.613   +20 18 41.34  .08987 1.0757 163.3 23.1  31d 164
2019 11 14 17  02 06 47.202   +20 18 24.23  .08989 1.0757 163.2 23.1  31d 164
2019 11 14 18  02 06 40.801   +20 18 07.10  .08991 1.0757 163.2 23.1  31d 164
2019 11 14 19  02 06 34.408   +20 17 49.97  .08993 1.0757 163.1 23.1  31d 164
2019 11 14 20  02 06 28.024   +20 17 32.82  .08996 1.0757 163.0 23.1  31d 164
2019 11 14 21  02 06 21.648   +20 17 15.66  .08998 1.0757 163.0 23.1  31d 164
2019 11 14 22  02 06 15.282   +20 16 58.49  .09000 1.0756 162.9 23.1  31d 164
2019 11 14 23  02 06 08.924   +20 16 41.31  .09002 1.0756 162.9 23.1  31d 164
2019 11 15 00  02 06 02.576   +20 16 24.12  .09005 1.0756 162.8 23.1  31d 164
2019 11 15 01  02 05 56.236   +20 16 06.91  .09007 1.0756 162.7 23.1  31d 164
2019 11 15 02  02 05 49.905   +20 15 49.70  .09009 1.0756 162.7 23.1  31d 164
2019 11 15 03  02 05 43.583   +20 15 32.47  .09012 1.0756 162.6 23.1  31d 164
2019 11 15 04  02 05 37.271   +20 15 15.23  .09014 1.0756 162.5 23.1  31d 164
2019 11 15 05  02 05 30.967   +20 14 57.99  .09016 1.0755 162.5 23.1  31d 164
2019 11 15 06  02 05 24.672   +20 14 40.73  .09019 1.0755 162.4 23.1  31d 164
2019 11 15 07  02 05 18.386   +20 14 23.46  .09021 1.0755 162.4 23.1  31d 164
2019 11 15 08  02 05 12.110   +20 14 06.18  .09024 1.0755 162.3 23.1  31d 164
2019 11 15 09  02 05 05.842   +20 13 48.89  .09026 1.0755 162.2 23.1  31d 164